Regional Weather Roundup
Issued by NWS Albany, NY

Current Version | Previous Version | Graphics & Text | Print | Product List | Glossary Off
Versions: 1 2 3 4 5 6 7 8 9 10 11 12 13 14 15 16 17 18 19 20 21 22 23 24 25 26 27 28 29 30 31 32 33 34 35 36 37 38 39 40 41 42 43 44 45 46 47 48 49 50

000
ASUS41 KALY 061910
RWRALY

NEW YORK STATE HOURLY WEATHER ROUNDUP
NATIONAL WEATHER SERVICE ALBANY NY
300 PM EDT FRI MAY 06 2016

NOTE: "FAIR" INDICATES FEW OR NO CLOUDS BELOW 12,000 FEET WITH NO
SIGNIFICANT WEATHER AND/OR NO OBSTRUCTIONS TO VISIBILITY.

NYZ032-033-038>043-046>054-057>066-NYZ062>081-082-084-062000-
EAST


CITY           SKY/WX    TMP DP  RH WIND       PRES   REMARKS
ALBANY         CLOUDY    63  45  51 NW7       29.77F
GLENS FALLS    CLOUDY    65  43  44 NE9       29.77F
POUGHKEEPSIE   CLOUDY    56  52  86 N6        29.76R FOG
NEWBURGH       DRIZZLE   52  52 100 NE8       29.77R FOG
MONTGOMERY     CLOUDY    53  51  93 NE12      29.75S FOG
WHITE PLAINS   CLOUDY    52  48  86 E9G16     29.75R
ISLIP          CLOUDY    51  46  83 E24G39    29.76S
NEW YORK CITY  CLOUDY    54  51  90 E15       29.73S
CENTRAL PARK   CLOUDY    52  47  83 MISG      29.76R
$$

NYZ005>009-017-018-044>046-055-056-062000-
CENTRAL


CITY           SKY/WX    TMP DP  RH WIND       PRES   REMARKS
FULTON         CLOUDY    64  39  39 N12       29.79F
SYRACUSE       LGT RAIN  61  43  51 E6        29.77S
ROME           LGT RAIN  55  51  86 E5        29.79R
ELMIRA         RAIN      54  43  66 NE7       29.77R
BINGHAMTON     LGT RAIN  48  46  93 NE13      29.77S
MONTICELLO     CLOUDY    50  48  93 E13G22    29.75S
$$

NYZ026>034-041>043-087-062000-
NORTH


CITY           SKY/WX    TMP DP  RH WIND       PRES   REMARKS
WATERTOWN      CLOUDY    64  36  35 NE17      29.80F
FORT DRUM      NOT AVBL
MASSENA        MOSUNNY   65  34  31 E12       29.86F
SARANAC LAKE   CLOUDY    64  36  35 E15G22    29.81F
PLATTSBURGH    SUNNY     65  39  38 N14G21    29.83F
$$

NYZ001>004-010>016-019>021-085-062000-
WEST


CITY           SKY/WX    TMP DP  RH WIND       PRES   REMARKS
NIAGARA FALLS  PTSUNNY   68  38  33 NE13G21   29.82F
BUFFALO        CLOUDY    64  35  34 NE17      29.82F
DUNKIRK        MOSUNNY   60  43  53 N9        29.83F
JAMESTOWN      MOSUNNY   59  36  41 N18G24    29.80F
WELLSVILLE     CLOUDY    56  32  40 N17G25    29.78F
ROCHESTER      CLOUDY    62  39  42 NE16      29.82F
PENN YAN       CLOUDY    56  39  53 N9G17     29.80F
$$

             KEY
       WCI = WIND CHILL INDEX
       VSB = VISIBILITY
       HX  = HEAT INDEX
$$



USA.gov is the U.S. government's official web portal to all federal, state and local government web resources and services.